User: anonymous   Login
Location: Unspecified
(0.0000°N, 0.0000°E)
Time: 01:19:26
(UTC+00:00)
Language:

INTELSAT 1002 - Orbit

View from above orbital plane
View from above orbital plane
View from above satellite
View from above satellite

Ground track
Ground track

The orbit data is extracted from the following two-line orbital elements,

1 28358U 04022A   19107.86185840 -.00000032 +00000-0 +00000-0 0  9998
2 28358 000.0166 184.8702 0003285 205.3081 124.7843 01.00272796054415
Epoch (UTC): 17 April 2019 20:41:04
Eccentricity: 0.0003285
inclination: 0.0166°
perigee height: 35772 km
apogee height: 35800 km
right ascension of ascending node: 184.8702°
argument of perigee: 205.3081°
revolutions per day: 1.00272796
mean anomaly at epoch: 124.7843°
orbit number at epoch: 5441

The dashed part of the orbit path shows where the satellite is in the earth's shadow,  

DLR